Flag for France Weather past 2 weeks in Brest, France

Now
50 °F

Passing clouds.


Feels Like: 49 °F
Forecast: 54 / 65 °F
Wind: 3 mph from Northwest

Location: Brest Airport

Current Time: Jul 29, 2015 at 8:57:26 AM

Latest Report: Jul 29, 2015 at 8:00 AM


Visibility: N/A

Pressure: 29.98 "Hg

Humidity: 94%

Dew point: 48 °F

Location of BrestLocation

Historic Weather in Brest — Graph

°F

Brest temperature yesterday

Maximum temperature yesterday: 63 °F (at 7:00 PM)
Minimum temperature yesterday: 52 °F (at 11:00 PM)
Average temperature yesterday: 57 °F

Past Weeks' High & Low Weather Summary

 TemperatureHumidityPressure
High81 °F (Jul 16, 2:00 PM)100% (Jul 15, 1:00 AM)30.18 "Hg (Jul 15, 1:00 AM)
Low48 °F (Jul 23, 6:30 AM)52% (Jul 25, 4:30 PM)29.62 "Hg (Jul 24, 1:00 PM)
Average62 °F83%29.96 "Hg
* Reported Jul 14 7:00 AM — Jul 29 7:30 AM, Brest, Weather by CustomWeather, © 2015

Note: Actual official high and low records may vary slightly from our data, if they occured in-between our weather recording intervals... More about our weather records

Advertising

Brest weather history for previous 24 hours

 ConditionsComfort  
Time TempWeatherWind HumidityBarometerVisibility
7:30 AM
Wed, Jul 29
50 °FPassing clouds.5 mph88%29.98 "HgN/A
7:00 AM48 °FPassing clouds.5 mph94%29.98 "HgN/A
6:30 AM48 °FPassing clouds.5 mph94%29.98 "HgN/A
5:30 AM48 °FPassing clouds.5 mph94%29.95 "HgN/A
5:00 AM48 °FClear.5 mph94%29.95 "Hg10 mi
4:30 AM48 °FClear.5 mph94%29.95 "Hg10 mi
4:00 AM48 °FPassing clouds.5 mph94%29.95 "HgN/A
3:30 AM48 °FPassing clouds.5 mph94%29.95 "HgN/A
3:00 AM48 °FPassing clouds.3 mph94%29.95 "HgN/A
2:30 AM50 °FPassing clouds.5 mph94%29.98 "HgN/A
2:00 AM50 °FPassing clouds.5 mph94%29.98 "HgN/A
1:30 AM48 °FPassing clouds.3 mph94%29.95 "Hg5 mi
1:00 AM50 °FPassing clouds.3 mph88%29.95 "HgN/A
12:30 AM50 °FPassing clouds.3 mph88%29.95 "HgN/A
12:00 AM50 °FPassing clouds.3 mph94%29.95 "HgN/A
11:30 PM
Tue, Jul 28
52 °FPassing clouds.3 mph88%29.95 "HgN/A
11:00 PM52 °FPassing clouds.5 mph88%29.95 "HgN/A
10:30 PM54 °FPassing clouds.3 mph82%29.95 "HgN/A
10:00 PM55 °FPassing clouds.5 mph77%29.92 "HgN/A
9:30 PM57 °FPassing clouds.6 mph72%29.92 "HgN/A
9:00 PM59 °FPassing clouds.7 mph68%29.92 "HgN/A
8:30 PM61 °FPassing clouds.8 mph63%29.92 "HgN/A
8:00 PM61 °FPassing clouds.9 mph59%29.92 "HgN/A
7:30 PM63 °FPassing clouds.10 mph56%29.92 "HgN/A
7:00 PM63 °FPassing clouds.8 mph56%29.92 "HgN/A
6:30 PM61 °FScattered clouds.8 mph59%29.92 "HgN/A
6:00 PM61 °FPartly sunny.7 mph59%29.92 "HgN/A
5:30 PM61 °FPartly sunny.8 mph63%29.92 "HgN/A
5:00 PM61 °FPartly sunny.8 mph63%29.92 "HgN/A
4:30 PM59 °FPartly sunny.7 mph72%29.92 "HgN/A
4:00 PM59 °FPartly sunny.7 mph77%29.92 "HgN/A
3:30 PM59 °FScattered clouds.5 mph77%29.92 "HgN/A
3:00 PM57 °FBroken clouds.3 mph88%29.92 "HgN/A
2:30 PM55 °FBroken clouds.5 mph88%29.92 "HgN/A
2:00 PM55 °FLight rain. Broken clouds.5 mph88%29.92 "HgN/A
1:30 PM57 °FLight rain. Broken clouds.6 mph88%29.92 "HgN/A
1:00 PM57 °FLight rain. Broken clouds.6 mph82%29.92 "HgN/A
12:30 PM57 °FLight rain. Broken clouds.7 mph82%29.92 "HgN/A
12:00 PM59 °FLight rain. Broken clouds.6 mph77%29.92 "HgN/A
11:30 AM59 °FLight rain. Broken clouds.6 mph77%29.92 "HgN/A
11:00 AM59 °FPartly sunny.6 mph72%29.92 "HgN/A
10:30 AM59 °FPartly sunny.8 mph77%29.92 "HgN/A
10:00 AM59 °FPartly sunny.6 mph77%29.89 "HgN/A
9:30 AM59 °FPartly sunny.6 mph77%29.92 "HgN/A
9:00 AM57 °FPartly sunny.6 mph82%29.92 "HgN/A
8:30 AM55 °FPartly sunny.7 mph82%29.92 "HgN/A
8:00 AM55 °FPartly sunny.5 mph82%29.89 "HgN/A
Weather by CustomWeather, © 2015

See weather overviewHow to use our weather pages